Home   Weather   Mali Klishchi   Past weeks
Flag for Ukraine

Past Weather in Mali Klishchi, Ukraine — Yesterday and Last 2 Weeks

Now
68 °F

Clear.


Feels Like: 68 °F
Forecast: 90 / 66 °F
Wind: No wind

Location: Hostomel

Current Time: Jun 21, 2019 at 2:29:41 am

Latest Report: Jun 21, 2019 at 2:00 am


Visibility: N/A

Pressure: 29.98 "Hg

Humidity: 60%

Dew Point: 54 °F

Location of Mali KlishchiLocation

Past Weather in Mali Klishchi — Graph

°F

Mali Klishchi Temperature Yesterday

Maximum temperature yesterday: 88 °F (at 12:30 pm)
Minimum temperature yesterday: 63 °F (at 4:00 am)
Average temperature yesterday: 77 °F

High & Low Weather Summary for the Past Weeks

 TemperatureHumidityPressure
High91 °F (Jun 15, 2:30 pm)100% (Jun 6, 1:30 am)30.18 "Hg (Jun 6, 1:30 am)
Low59 °F (Jun 8, 4:00 am)20% (Jun 15, 3:30 pm)29.92 "Hg (Jun 16, 5:00 pm)
Average76 °F59%30.05 "Hg
* Reported Jun 6 1:00 am — Jun 21 1:00 am, Mali Klishchi. Weather by CustomWeather, © 2019

Note: Actual official high and low records may vary slightly from our data, if they occured in-between our weather recording intervals... More about our weather records

Advertising

Mali Klishchi Weather History for the Previous 24 Hours

Scroll right to see more
 ConditionsComfort  
Time TempWeatherWind HumidityBarometerVisibility
1:00 am
Fri, Jun 21
68 °FClear.No wind60%29.98 "HgN/A
12:30 am70 °FClear.No wind60%29.98 "HgN/A
12:00 am72 °FClear.No wind53%29.98 "HgN/A
11:30 pm
Thu, Jun 20
72 °FClear.No wind53%29.98 "HgN/A
11:00 pm75 °FClear.No wind47%29.98 "HgN/A
10:30 pm75 °FClear.No wind47%29.98 "HgN/A
10:00 pm79 °FClear.3 mph39%29.95 "HgN/A
9:30 pm79 °FClear.3 mph39%29.95 "HgN/A
9:00 pm79 °FSunny.3 mph42%29.95 "HgN/A
8:30 pm81 °FSunny.6 mph39%29.92 "HgN/A
8:00 pm84 °FSunny.8 mph35%29.92 "HgN/A
7:30 pm84 °FSunny.6 mph35%29.92 "HgN/A
7:00 pm84 °FSunny.6 mph35%29.92 "HgN/A
6:30 pm84 °FSunny.3 mph35%29.92 "HgN/A
6:00 pm86 °FSunny.6 mph31%29.95 "HgN/A
5:30 pm86 °FSunny.6 mph31%29.95 "HgN/A
5:00 pm86 °FPassing clouds.6 mph31%29.95 "HgN/A
4:30 pm86 °FPassing clouds.6 mph33%29.95 "HgN/A
4:00 pm86 °FPassing clouds.6 mph33%29.95 "HgN/A
3:30 pm86 °FPassing clouds.6 mph35%29.95 "HgN/A
3:00 pm88 °FPassing clouds.8 mph33%29.95 "HgN/A
2:30 pm88 °FPassing clouds.8 mph33%29.98 "HgN/A
2:00 pm86 °FPassing clouds.8 mph35%29.98 "HgN/A
1:30 pm86 °FPassing clouds.8 mph33%29.98 "HgN/A
1:00 pm88 °FPassing clouds.6 mph31%29.98 "HgN/A
12:30 pm88 °FPassing clouds.6 mph33%29.98 "HgN/A
12:00 pm84 °FPassing clouds.6 mph37%29.98 "HgN/A
11:30 am86 °FPassing clouds.8 mph35%29.98 "HgN/A
11:00 am84 °FPassing clouds.6 mph37%29.98 "HgN/A
10:30 am82 °FPassing clouds.8 mph40%29.98 "HgN/A
10:00 am82 °FPassing clouds.6 mph40%29.98 "HgN/A
9:30 am82 °FPassing clouds.6 mph40%29.98 "HgN/A
9:00 am81 °FPassing clouds.3 mph45%29.98 "HgN/A
8:30 am79 °FPassing clouds.3 mph51%29.98 "HgN/A
8:00 am77 °FPassing clouds.6 mph51%29.98 "HgN/A
7:30 am75 °FPassing clouds.3 mph54%29.98 "HgN/A
7:00 am72 °FSunny.No wind61%29.98 "HgN/A
6:30 am70 °FSunny.1 mph64%29.98 "HgN/A
6:00 am66 °FSunny.1 mph68%29.98 "HgN/A
5:30 am64 °FSunny.No wind73%29.98 "HgN/A
5:00 am63 °FSunny.No wind77%29.98 "HgN/A
4:30 am63 °FClear.No wind73%29.98 "HgN/A
4:00 am63 °FClear.1 mph77%29.98 "HgN/A
3:30 am64 °FClear.No wind68%29.98 "HgN/A
3:00 am64 °FClear.No wind68%29.98 "HgN/A
2:30 am64 °FClear.No wind68%29.98 "HgN/A
2:00 am64 °FClear.No wind68%29.98 "HgN/A
Weather by CustomWeather, © 2019

See weather overview